Location: Mainz-Finthen
(49.9906°N, 8.1713°E)
Time: 02:20:16
(UTC+00:00)

UKube-1 - Visible Passes

Search period start: 29 November 2021 00:00
Search period end: 09 December 2021 00:00
Orbit: 612 x 617 km, 98.4° (Epoch: 28 November)

Date Brightness Start Highest point End Pass type
(mag) Time Alt. Az. Time Alt. Az. Time Alt. Az.
29 Nov ? 05:48:31 10° E 05:50:37 14° NE 05:52:44 10° NNE visible
30 Nov ? 06:03:04 10° E 06:05:57 18° ENE 06:08:49 10° NNE visible
01 Dec ? 06:17:52 10° ESE 06:21:17 23° ENE 06:24:42 10° N visible
05 Dec ? 05:45:56 10° E 05:47:43 12° NE 05:49:30 10° NNE visible
06 Dec ? 06:00:21 10° E 06:03:01 16° ENE 06:05:42 10° NNE visible
07 Dec ? 06:15:05 10° ESE 06:18:21 21° ENE 06:21:37 10° NNE visible
08 Dec ? 06:30:01 10° ESE 06:33:42 28° ENE 06:37:24 10° N visible
